Simultaneous Nadir Overpasses (SNOs) Predictions

Prediction of SNOs between LANDSAT-8 and NOAA-19 Satellite Orbit:

Table of predicted SNOs for the next 14.0 days since TLE Epoch: 6/10/2015
Index Date (LANDSAT-8) Time (LANDSAT-8) Lat,Lon (LANDSAT-8) SZA (LANDSAT-8 ) Date (NOAA-19) Time (NOAA-19) Lat,Lon (NOAA-19) SZA (NOAA-19 ) Distance(km) Time Diff (sec)
1 06/10/2015 19:18:17 73.28,-108.07 50.17 06/10/2015 19:17:04 73.31,-108.09 50.20 3.55 73
2 06/10/2015 20:07:46 -73.21, 59.42 129.91 06/10/2015 20:07:57 -73.20, 59.43 129.92 1.15 11
3 06/13/2015 00:52:04 -73.25, -11.57 130.01 06/13/2015 00:51:19 -73.24, -11.46 130.03 3.86 45
4 06/13/2015 01:41:31 73.17, 155.90 49.90 06/13/2015 01:42:25 73.16, 155.94 49.90 1.32 54
5 06/15/2015 06:25:48 73.25, 84.99 49.87 06/15/2015 06:25:48 73.26, 84.93 49.88 2.20 0
6 06/15/2015 07:15:24 -72.82,-108.23 130.58 06/15/2015 07:16:34 -72.81,-106.80 130.57 47.02 70
7 06/17/2015 11:10:05 73.32, 14.06 49.86 06/17/2015 11:09:10 73.31, 14.01 49.85 2.18 55
8 06/17/2015 11:59:35 -73.20,-178.54 130.26 06/17/2015 12:00:03 -73.21,-178.50 130.26 1.44 28
9 06/19/2015 16:43:52 -73.26, 110.51 130.25 06/19/2015 16:43:25 -73.27, 110.56 130.24 1.82 27
10 06/19/2015 17:33:19 73.17, -82.03 49.66 06/19/2015 17:34:31 73.19, -82.03 49.68 2.23 72
11 06/21/2015 21:28:04 -73.57, 40.09 129.95 06/21/2015 21:26:53 -73.63, 38.91 129.90 37.49 71
12 06/21/2015 22:17:35 73.27,-152.90 49.74 06/21/2015 22:17:53 73.26,-153.00 49.74 3.04 18
13 06/24/2015 03:01:52 73.30, 136.10 49.80 06/24/2015 03:01:14 73.29, 136.13 49.79 1.24 38




NCC Satellite Simultaneous Nadir Overpasses (SNOs) Prediction Service
